Location: Rheinau
(48.8717°N, 8.1913°E)
Time: 21:41:02
(UTC+00:00)

Daily predictions for brighter satellites

Satellite Brightness Start Highest point End
(mag) Time Altitude Azimuth Time Altitude Azimuth Time Altitude Azimuth
Cosmos 2344 3.8 16:22:51 10° SSW 16:30:20 54° ESE 16:37:21 10° NE
SL-16 R/B 4.0 16:29:01 10° W 16:33:34 24° NW 16:38:09 10° N
Okean 3 4.4 16:33:27 10° SSE 16:36:53 27° E 16:40:22 10° NNE
Cosmos 1937 Rocket 4.5 16:33:06 10° N 16:37:21 25° NE 16:41:35 10° ESE
ASTEX 1 3.5 16:33:11 10° S 16:38:02 84° W 16:42:56 10° N
Meteor 1-31 Rocket 4.2 16:37:15 10° E 16:39:16 15° ENE 16:41:18 10° NNE
Cosmos 1354 Rocket 4.4 16:35:40 10° NNW 16:40:53 71° WSW 16:46:05 10° SSE
Okean 2 4.5 16:38:11 10° SE 16:41:18 23° E 16:44:27 10° NE
CZ-2D R/B 3.8 16:39:39 10° S 16:43:01 55° W 16:46:24 10° NNW
Cosmos 1943 Rocket 2.3 16:39:16 10° NNW 16:44:51 55° NE 16:50:21 10° SE
ARIANE 5 R/B 3.8 16:40:49 10° S 16:45:51 48° W 16:50:54 10° NNW
NOSS 5 (C) 4.3 16:43:36 10° NW 16:46:53 86° SW 16:50:07 10° SE
CZ-2C R/B 4.4 16:48:33 10° ENE 16:48:55 10° ENE 16:49:33 10° NE
Cosmos 2237 Rocket 2.8 16:44:57 10° S 16:50:07 37° ESE 16:55:18 10° NE
RESURS DK-1 2.5 16:47:53 10° NNW 16:51:48 47° NE 16:55:42 10° SE
Tsikada Rocket 4.1 16:48:09 10° S 16:54:17 82° W 17:00:30 10° N
Cosmos 1862 Rocket 4.2 16:50:32 10° SSE 16:54:29 35° E 16:58:30 10° NNE
USA 81 4.3 16:51:08 10° S 16:56:23 75° W 17:01:41 10° N
BlueWalker 3 2.4 16:53:18 10° WNW 16:56:49 42° N 16:59:51 13° ENE
BREEZE-M DEB (TANK) 1.7 16:55:34 10° SW 16:57:48 48° SSE 17:00:09 13° E
Cosmos 1455 2.3 16:55:09 10° NNW 16:58:20 62° W 17:01:30 10° S
Cosmos 2278 Rocket 2.2 16:53:18 10° NNW 16:59:00 85° ENE 17:04:41 10° SSE
COSMO-SKYMED 1 3.4 16:57:16 10° NNE 17:01:09 31° E 17:04:59 10° SSE
Cosmos 2219 Rocket 3.3 16:56:06 10° WSW 17:01:22 41° NW 17:06:41 10° NNE
SJ-7 4.1 16:57:39 10° SSE 17:01:26 77° ENE 17:05:15 10° N
ARGOS Delta rocket 3.7 16:57:22 10° SSE 17:02:02 89° ENE 17:06:32 10° N
ISS -2.9 17:00:36 10° SW 17:03:44 38° SSE 17:06:06 15° E
CZ-4C R/B 2.8 17:00:44 10° S 17:04:27 28° ESE 17:08:01 14° ENE
CSL-04 DEB 4.4 17:02:03 10° SSE 17:05:54 78° WSW 17:09:43 10° NNW
Nadezhda 4 Rocket 4.5 17:02:44 10° SSE 17:08:14 37° E 17:13:47 10° NNE
Meteor 1-21 4.2 17:03:11 10° S 17:08:48 90° W 17:14:30 10° NNE
USA 306 2.9 17:10:05 10° NW 17:12:00 24° NNE 17:12:55 20° NE
Cosmos 1763 Rocket 3.5 17:06:50 10° SSW 17:12:03 88° WNW 17:17:14 10° NNE
Spot 4 Rocket 4.3 17:07:13 10° S 17:12:20 72° WSW 17:17:29 10° NNW
YAOGAN 1 3.2 17:09:20 10° SE 17:13:06 31° ENE 17:16:52 10° N
ATLAS 5 CENTAUR R/B 2.8 17:12:39 10° SE 17:14:13 13° ESE 17:14:21 13° ESE
Cosmos 1733 Rocket 3.0 17:10:08 10° N 17:14:33 77° E 17:18:57 10° SSE
Cosmos 540 Rocket 3.4 17:12:38 10° SSW 17:17:46 83° ESE 17:22:55 10° NNE
Landsat 7 3.8 17:14:35 10° SSE 17:19:10 56° ENE 17:23:46 10° N
Cosmos 2322 4.4 17:15:04 10° SW 17:20:40 54° NW 17:26:18 10° NNE
SPOT 1/Viking Rocket 4.3 17:16:33 10° ESE 17:20:59 30° ENE 17:25:26 10° N
Cosmos 468 Rocket 3.9 17:16:31 10° SSW 17:21:40 71° ESE 17:26:49 10° NNE
USA 215 3.7 17:16:12 14° NE 17:21:45 53° NNW 17:28:03 10° W
Cosmos 2228 Rocket 3.1 17:20:50 10° S 17:25:21 78° E 17:29:56 10° NNE
Cosmos 2279 Rocket 4.2 17:20:26 10° NNW 17:26:38 76° W 17:32:48 10° S
Resurs 1-3 4.4 17:25:02 10° SE 17:28:44 28° ENE 17:32:27 10° N
Cosmos 1656 Rocket 4.2 17:24:21 10° NNW 17:29:23 35° NE 17:33:23 15° ESE
Cosmos 1898 Rocket 3.4 17:24:18 10° NNW 17:29:37 77° ENE 17:34:56 10° SSE
Cosmos 841 Rocket 3.8 17:26:14 10° S 17:31:10 44° ESE 17:35:00 16° NE
Aureole 1 Rocket 4.4 17:25:58 10° NNW 17:33:44 89° WSW 17:40:39 10° SSE
Cosmos 1703 3.8 17:33:26 10° SSE 17:36:27 30° E 17:36:27 30° E
Okean 1-7 3.0 17:34:50 10° S 17:39:02 58° E 17:43:15 10° NNE
SL-16 R/B 3.1 17:34:44 10° SSE 17:39:26 28° ESE 17:40:55 25° ENE
Cosmos 1980 3.6 17:34:05 10° SSW 17:39:44 88° ESE 17:44:57 12° NNE
Cosmos 1953 3.2 17:39:42 10° NNW 17:43:18 47° W 17:46:52 10° SSW
ADEOS 4.3 17:48:47 29° ENE 17:49:15 29° ENE 17:53:42 10° N
SKYMED 2 3.5 17:44:58 10° NNE 17:49:20 90° WNW 17:53:41 10° SSW
NOSS 0 Rocket 4.3 17:43:40 10° SW 17:49:47 66° NW 17:55:39 11° NNE
Cosmos 1818 3.5 17:47:04 10° NW 17:52:32 66° NE 17:56:19 20° SE
Cosmos 1092 Rocket 4.3 17:48:21 10° SSE 17:54:04 42° E 17:59:53 10° NNE
ATLAS 2AS CENTAUR R/B 2.6 17:47:22 10° NW 17:54:11 65° NE 17:59:05 19° ESE
Resurs 01 Rocket 3.8 17:57:26 12° NNE 17:57:26 12° NNE 17:57:49 10° NNE
Cosmos 2369 Rocket 2.7 17:50:19 10° NNW 17:55:32 38° NE 17:56:55 33° E
ACS3 Solar Sail 1.8 17:49:36 10° SSE 17:56:00 87° ENE 18:02:27 10° NNW
COSMOS 2428 4.0 17:52:00 10° WSW 17:57:15 37° NW 18:02:33 10° NNE
Cosmos 372 Rocket 4.4 17:54:34 10° NNW 17:59:36 63° WSW 18:04:37 10° S
BREEZE-M DEB (TANK) 2.9 17:58:50 10° W 18:06:36 82° N 18:07:22 55° ENE
Cosmos 1908 Rocket 3.4 18:03:15 10° N 18:07:37 88° E 18:11:56 10° S
Meteor 2-12 Rocket 4.3 18:05:21 10° S 18:11:22 69° E 18:17:27 10° NNE
CZ-4B DEB 4.5 18:12:00 42° ENE 18:12:23 42° ENE 18:17:33 10° N
Meteor 1-31 Rocket 3.4 18:08:56 10° S 18:12:24 51° W 18:15:55 10° NNW
EO 1 Delta rocket 4.1 18:08:34 10° N 18:13:17 67° WNW 18:17:53 10° SSW
Cosmos 1627 Rocket 4.5 18:10:47 10° S 18:17:04 64° E 18:23:22 10° NNE
Cosmos 2297 3.7 18:13:01 10° NNW 18:18:44 60° ENE 18:20:18 44° ESE
Cosmos 1937 Rocket 4.0 18:14:32 10° NNW 18:19:36 57° WSW 18:24:38 10° S
CZ-2C R/B 3.4 18:22:18 40° NNW 18:22:18 40° NNW 18:24:36 10° NNW
Cosmos 2026 Rocket 3.9 18:16:25 10° S 18:22:45 72° E 18:29:05 10° NNE
Cosmos 1932 4.4 18:18:13 10° SSW 18:24:17 63° ESE 18:25:49 48° ENE
BREEZE-M DEB (TANK) 3.1 18:15:15 10° WSW 18:27:58 81° SSE 18:28:56 58° E
Cosmos 1943 Rocket 4.2 18:23:32 10° NW 18:28:15 28° WSW 18:32:56 10° SSW
Cosmos 2237 Rocket 3.2 18:28:40 10° SW 18:34:05 44° NW 18:37:58 18° NNE
BlueWalker 3 2.7 18:31:10 10° WNW 18:33:53 47° WNW 18:33:53 47° WNW
COSMO-SKYMED 1 4.3 18:33:26 10° N 18:37:17 32° WNW 18:41:08 10° SW
ISS -1.9 18:37:03 10° W 18:39:01 31° W 18:39:01 31° W
Cosmos 2344 4.2 18:37:53 10° WSW 18:44:51 44° NNW 18:48:48 25° NNE
YAOGAN 1 4.4 18:45:12 10° SSW 18:48:58 30° W 18:52:48 10° NNW
CZ-4C R/B 2.5 18:47:50 10° WSW 18:52:20 52° NW 18:53:04 48° N
ATLAS 5 CENTAUR R/B 3.5 18:53:43 10° WSW 18:54:38 18° WSW 18:54:38 18° WSW
Meteor 1-24 Rocket 3.7 18:51:53 10° S 18:57:48 88° E 18:58:09 81° NNE
USA 215 3.8 19:03:32 43° NNE 19:04:07 44° N 19:10:15 10° WNW
Meteor 2-5 Rocket 3.9 19:02:40 10° SSW 19:07:38 67° SSW 19:07:38 67° SSW
SL-16 R/B 2.8 19:17:39 10° SW 19:22:50 54° WNW 19:22:50 54° WNW
Cosmos 1553 Rocket 4.2 19:18:17 10° NNW 19:23:51 64° WNW 19:23:51 64° WNW
Cosmos 2369 Rocket 3.3 19:34:21 10° NW 19:38:45 40° W 19:38:45 40° W
ACS3 Solar Sail 4.3 19:36:01 10° SW 19:40:21 19° W 19:44:43 10° NW
ATLAS 2AS CENTAUR R/B 4.0 19:38:46 10° NW 19:44:41 33° WSW 19:46:35 28° SW
